Regional Weather Roundup
Issued by NWS Goodland, KS

Home | Current Version | Previous Version | Text Only | Print | Product List | Glossary Off
Versions: 1 2 3 4 5 6 7 8 9 10 11 12 13 14 15 16 17 18 19 20 21 22 23 24 25 26 27 28 29 30 31 32 33 34 35 36 37 38 39 40 41 42 43 44 45 46 47 48 49 50

000
ASUS43 KGLD 121708
RWRGLD

GOODLAND FORECAST AREA HOURLY WEATHER ROUNDUP
NATIONAL WEATHER SERVICE GOODLAND KS
1000 AM MST FRI FEB 12 2016

...OFFICIAL OBSERVATIONS...

CITY           SKY/WX    TMP DP  RH WIND       PRES   REMARKS
GOODLAND KS    MOSUNNY   43  31  62 E9        30.36R
HILL CITY KS   CLOUDY    35  30  82 NE10      30.44R
IMPERIAL NEB   CLOUDY    33  30  88 E9        30.40R
MCCOOK NEB     CLOUDY    33  29  85 E6        30.43R
AKRON CO       CLOUDY    42  31  64 NE6       30.32S
BURLINGTON CO  MOSUNNY   47  28  47 S6        30.34S
LIMON CO       CLOUDY    43  30  60 CALM      30.33R
$$

...UNOFFICIAL OBSERVATIONS...

CITY           SKY/WX    TMP DP  RH WIND       PRES   REMARKS
COLBY KS       PTSUNNY   37  34  87 NE12      30.40R
GOVE KS          N/A     38  32  79 MISG        N/A
LENORA KS        N/A     33  32  96 MISG        N/A
NORTON KS      CLOUDY    34  27  75 NE6       30.43R
SHARON SPRINGS   N/A     48  35  61 CALM        N/A
KIT CARSON CO    N/A     50  30  46 MISG        N/A
YUMA CO          N/A     42  34  73 CALM        N/A
$$



USA.gov is the U.S. government's official web portal to all federal, state and local government web resources and services.